Overview Statistics Trail Chart Weather Telemetry Raw packets
 

This is the latest recevied weather packets stored in our database for station/object OE5RBO. If no packets are shown the sender has not sent any weather packets the latest 10 day(s).

<< 23 24 25 26 27 28 29 >>
Time Temp. Humidity Pressure Rain* Wind** Luminosity Snow
1788245580 22.22° C 72% 1022.4 hPa 0 mm - - -
1788244979 21.67° C 71% 1022.3 hPa 0 mm - - -
1788244379 21.11° C 72% 1022.2 hPa 0 mm - - -
1788243779 20° C 76% 1022.2 hPa 0 mm - - -
1788243178 19.44° C 78% 1022.2 hPa 0 mm - - -
1788242578 17.78° C 82% 1022.2 hPa 0 mm - - -
1788241978 16.67° C 91% 1022 hPa 0 mm - - -
1788241377 16.67° C 89% 1022 hPa 0 mm - - -
1788240777 17.22° C 87% 1022.1 hPa 0 mm - - -
1788240176 17.22° C 87% 1022.1 hPa 0 mm - - -
1788239581 17.22° C 84% 1021.9 hPa 0 mm - - -
1788238976 17.22° C 84% 1021.7 hPa 0 mm - - -
1788238375 17.22° C 83% 1021.8 hPa 0 mm - - -
1788237775 17.22° C 83% 1021.8 hPa 0 mm - - -
1788237174 17.78° C 82% 1021.9 hPa 0 mm - - -
1788235974 17.78° C 82% 1022 hPa 0 mm - - -
1788235374 17.78° C 83% 1022.1 hPa 0 mm - - -
1788234783 17.22° C 85% 1022.1 hPa 0 mm - - -
1788234173 17.22° C 85% 1022.1 hPa 0 mm - - -
1788233572 17.22° C 85% 1022.1 hPa 0 mm - - -
1788232972 17.22° C 85% 1022.2 hPa 0 mm - - -
1788232372 17.22° C 85% 1022.2 hPa 0 mm - - -
1788231771 17.22° C 86% 1022.3 hPa 0 mm - - -
1788231171 17.22° C 85% 1022.4 hPa 0 mm - - -
1788230571 17.22° C 85% 1022.4 hPa 0 mm - - -

* Rain since midnight (hover to see other rain measurements)
** Current wind speed in m/s (hover to see current wind gust speed)